Date String (YYYY-MM-DD hh:mm:ss) UTC,Instrument flags,Ambient pressure (hPa),Sample flow (lpm),Bypass flow (lpm),Sample temperature (°C),Ambient temperature (°C),ASC tube jacket temperature (°C),LED temperature (°C),Box temperature (°C),Sample RH (%),Span deviation,Mass concentration (μg/m³),Mass concentration (μg/m³),Mass concentration (μg/m³)
DateTimeUTC,F1_M11,P_M11,Q1_M11,Q2_M11,T1_M11,T2_M11,T3_M11,T4_M11,T5_M11,U1_M11,ZSPAN_M11,X0_M11,X2_M11,X1_M11
2022-06-02 17:00:00,,0828.1,5.00,0.00,28.0,27.2,00.0,36.8,30.0,26.6,-001.4,0014.49,0010.41,0009.99
2022-06-02 17:01:00,,0828.1,5.00,0.00,28.0,27.2,00.0,36.8,30.0,25.6,-001.5,0014.28,0010.38,0009.99
2022-06-02 17:02:00,,0828.1,5.00,0.00,28.0,27.2,00.0,36.8,30.0,26.1,-001.7,0014.09,0010.31,0009.95
2022-06-02 17:03:00,,0828.2,5.02,0.00,28.0,27.2,00.0,36.8,30.0,26.2,-001.7,0013.98,0010.27,0009.93
2022-06-02 17:04:00,,0828.1,5.01,0.00,28.0,27.2,00.0,36.8,30.0,25.8,-001.9,0013.98,0010.23,0009.92
2022-06-02 17:05:00,,0828.2,5.00,0.00,28.1,27.3,00.0,36.9,30.0,25.5,-002.0,0013.64,0010.29,0009.96
2022-06-02 17:06:00,,0828.0,5.00,0.00,28.1,27.3,00.0,36.9,30.0,25.9,-002.0,0013.07,0010.31,0009.98
2022-06-02 17:07:00,,0828.1,5.01,0.00,28.1,27.3,00.0,36.9,30.0,25.7,-002.0,0013.28,0010.28,0009.96
2022-06-02 17:08:00,,0828.1,5.00,0.00,28.1,27.3,00.0,36.9,30.1,26.0,-002.0,0013.37,0010.30,0009.98
2022-06-02 17:09:00,,0828.1,5.00,0.00,28.1,27.3,00.0,36.9,30.1,26.2,-001.8,0013.44,0010.38,0010.06
2022-06-02 17:10:00,,0828.1,5.00,0.00,28.1,27.3,00.0,36.9,30.1,25.8,-001.9,0013.59,0010.51,0010.17
2022-06-02 17:11:00,,0828.1,5.00,0.00,28.1,27.3,00.0,36.9,30.1,25.9,-001.9,0013.71,0010.66,0010.32
2022-06-02 17:12:00,,0828.0,5.00,0.00,28.2,27.4,00.0,36.9,30.1,25.6,-001.7,0013.81,0010.79,0010.44
2022-06-02 17:13:00,,0828.1,5.00,0.00,28.2,27.4,00.0,37.0,30.1,25.8,-001.6,0014.01,0010.96,0010.60
2022-06-02 17:14:00,,0828.1,5.01,0.00,28.2,27.4,00.0,37.0,30.2,26.2,-001.4,0014.13,0011.09,0010.75
2022-06-02 17:15:00,,0828.1,5.00,0.00,28.2,27.4,00.0,37.0,30.2,26.4,-001.3,0014.69,0011.22,0010.87
2022-06-02 17:16:00,,0828.0,5.00,0.00,28.2,27.4,00.0,37.0,30.2,25.8,-001.1,0015.03,0011.32,0010.94
2022-06-02 17:17:00,,0828.1,5.00,0.00,28.2,27.5,00.0,37.0,30.2,25.6,-000.8,0015.29,0011.43,0011.04
2022-06-02 17:18:00,,0828.3,5.00,0.00,28.3,27.5,00.0,37.0,30.2,25.5,-000.8,0015.25,0011.59,0011.19
2022-06-02 17:19:00,,0828.1,5.01,0.00,28.3,27.5,00.0,37.0,30.2,25.7,-001.2,0015.16,0011.74,0011.35
2022-06-02 17:20:00,,0828.1,5.00,0.00,28.3,27.5,00.0,37.1,30.2,25.9,-001.4,0015.32,0011.86,0011.46
2022-06-02 17:21:00,,0828.0,5.00,0.00,28.3,27.5,00.0,37.1,30.2,26.7,-001.4,0015.42,0011.95,0011.54
2022-06-02 17:22:00,,0828.0,4.99,0.00,28.3,27.5,00.0,37.1,30.3,26.2,-001.6,0015.57,0012.00,0011.58
2022-06-02 17:23:00,,0828.0,5.01,0.00,28.3,27.5,00.0,37.1,30.3,26.0,-001.8,0015.63,0012.03,0011.60
2022-06-02 17:24:00,,0828.0,5.00,0.00,28.4,27.6,00.0,37.1,30.3,26.1,-001.9,0015.63,0012.01,0011.58
2022-06-02 17:25:00,,0827.9,4.99,0.00,28.4,27.6,00.0,37.1,30.3,26.1,-002.0,0015.59,0011.95,0011.51
2022-06-02 17:26:00,,0828.0,5.00,0.00,28.4,27.6,00.0,37.2,30.3,25.4,-002.2,0015.12,0011.88,0011.43
2022-06-02 17:27:00,,0827.9,5.01,0.00,28.4,27.6,00.0,37.2,30.3,25.8,-002.4,0014.43,0011.73,0011.31
2022-06-02 17:28:00,,0827.9,4.99,0.00,28.4,27.6,00.0,37.2,30.3,25.3,-002.5,0013.86,0011.57,0011.17
2022-06-02 17:29:00,,0827.9,5.00,0.00,28.4,27.6,00.0,37.2,30.3,25.0,-002.6,0013.71,0011.39,0011.01
2022-06-02 17:30:00,,0828.0,5.00,0.00,28.4,27.6,00.0,37.2,30.4,25.0,-002.5,0013.63,0011.25,0010.84
2022-06-02 17:31:00,,0827.9,5.00,0.00,28.4,27.6,00.0,37.2,30.4,24.9,-002.5,0013.68,0011.12,0010.71
2022-06-02 17:32:00,,0827.9,5.00,0.00,28.4,27.6,00.0,37.2,30.4,25.4,-002.4,0013.78,0010.96,0010.56
2022-06-02 17:33:00,,0827.9,5.00,0.00,28.5,27.7,00.0,37.3,30.4,25.3,-002.2,0013.53,0010.80,0010.41
2022-06-02 17:34:00,,0828.0,5.00,0.00,28.5,27.7,00.0,37.3,30.4,25.1,-002.0,0013.32,0010.66,0010.27
2022-06-02 17:35:00,,0827.9,4.99,0.00,28.5,27.7,00.0,37.3,30.4,24.9,-001.9,0013.21,0010.59,0010.21
2022-06-02 17:36:00,,0827.9,4.99,0.00,28.5,27.7,00.0,37.3,30.4,25.4,-001.8,0013.11,0010.54,0010.17
2022-06-02 17:37:00,,0827.9,5.00,0.00,28.5,27.6,00.0,37.3,30.4,25.6,-001.7,0013.05,0010.48,0010.13
2022-06-02 17:38:00,,0828.0,5.00,0.00,28.5,27.6,00.0,37.3,30.4,25.4,-001.4,0013.07,0010.43,0010.08
2022-06-02 17:39:00,,0827.9,5.00,0.00,28.5,27.6,00.0,37.3,30.4,25.8,-001.6,0013.00,0010.36,0010.00
2022-06-02 17:40:00,,0827.8,5.00,0.00,28.5,27.6,00.0,37.3,30.4,24.8,-001.5,0012.90,0010.27,0009.91
2022-06-02 17:41:00,,0827.8,5.00,0.00,28.5,27.7,00.0,37.3,30.4,24.8,-001.3,0012.93,0010.17,0009.81
2022-06-02 17:42:00,,0827.8,5.00,0.00,28.5,27.7,00.0,37.4,30.5,24.1,-000.9,0013.25,0010.04,0009.69
2022-06-02 17:43:00,,0827.9,4.99,0.00,28.5,27.7,00.0,37.4,30.5,23.9,-001.0,0012.83,0009.95,0009.60
2022-06-02 17:44:00,,0827.8,4.99,0.00,28.6,27.7,00.0,37.4,30.5,24.6,-001.0,0012.72,0009.85,0009.53
2022-06-02 17:45:00,,0827.8,5.00,0.00,28.6,27.7,00.0,37.4,30.5,24.4,-000.9,0012.75,0009.84,0009.52
2022-06-02 17:46:00,,0827.8,5.00,0.00,28.6,27.7,00.0,37.4,30.5,24.4,-000.9,0013.00,0009.80,0009.48
2022-06-02 17:47:00,,0827.8,5.00,0.00,28.6,27.8,00.0,37.4,30.5,24.5,-001.2,0013.63,0009.75,0009.42
2022-06-02 17:48:00,,0827.8,5.01,0.00,28.6,27.8,00.0,37.4,30.5,25.3,-001.3,0013.59,0009.68,0009.33
2022-06-02 17:49:00,,0827.8,5.00,0.00,28.6,27.8,00.0,37.4,30.5,25.6,-001.3,0013.95,0009.57,0009.22
2022-06-02 17:50:00,,0827.8,5.00,0.00,28.6,27.8,00.0,37.4,30.6,24.8,-001.2,0014.35,0009.54,0009.18
2022-06-02 17:51:00,,0827.8,5.00,0.00,28.6,27.8,00.0,37.5,30.6,24.7,-001.3,0014.36,0009.50,0009.13
2022-06-02 17:52:00,,0827.8,4.99,0.00,28.7,27.9,00.0,37.5,30.6,24.9,-001.4,0014.08,0009.39,0009.05
2022-06-02 17:53:00,,0827.8,5.01,0.00,28.7,27.9,00.0,37.5,30.6,24.7,-001.7,0013.41,0009.26,0008.94
2022-06-02 17:54:00,,0827.8,4.99,0.00,28.7,27.9,00.0,37.5,30.6,24.1,-001.8,0013.32,0009.17,0008.84
2022-06-02 17:55:00,,0827.8,5.01,0.00,28.7,27.9,00.0,37.5,30.6,24.8,-002.1,0013.60,0009.07,0008.74
2022-06-02 17:56:00,,0827.8,4.99,0.00,28.7,27.9,00.0,37.5,30.7,24.3,-002.5,0013.71,0008.90,0008.59
2022-06-02 17:57:00,,0827.8,5.00,0.00,28.7,27.9,00.0,37.5,30.7,24.3,-002.7,0013.30,0008.79,0008.46
2022-06-02 17:58:00,,0827.8,5.00,0.00,28.7,27.9,00.0,37.6,30.7,24.0,-002.7,0012.71,0008.74,0008.39
2022-06-02 17:59:00,,0827.8,5.00,0.00,28.8,28.0,00.0,37.6,30.7,23.9,-002.6,0012.69,0008.71,0008.37
